Flag for Philippines Weather past 2 weeks in Olongapo, Philippines

Now
88 °F

Scattered clouds.


Feels Like: 94 °F
Forecast: 76 / 90 °F
Wind: 10 mph from East

Location: Subic Bay Weather Station

Current Time: Oct 23, 2014 at 4:35:11 PM

Latest Report: Oct 23, 2014 at 4:00 PM


Visibility: N/A

Pressure: 29.77 "Hg

Humidity: 59%

Dew point: 72 °F

Location of OlongapoLocation

Historic Weather in Olongapo — Graph

°F

Olongapo temperature yesterday

Maximum temperature yesterday: 90 °F (at 12:00 PM)
Minimum temperature yesterday: 77 °F (at 2:00 AM)
Average temperature yesterday: 82 °F

Past Weeks' High & Low Weather Summary

 TemperatureHumidityPressure
High90 °F (Oct 13, 12:00 PM)94% (Oct 9, 3:00 AM)29.92 "Hg (Oct 9, 3:00 AM)
Low75 °F (Oct 9, 3:00 AM)52% (Oct 16, 12:00 PM)29.59 "Hg (Oct 9, 3:00 PM)
Average81 °F77%29.80 "Hg
* Reported Oct 8 3:00 PM — Oct 23 3:00 PM, Olongapo, Weather by CustomWeather, © 2014

Note: Actual official high and low records may vary slightly from our data, if they occured in-between our weather recording intervals... More about our weather records

Advertising

Olongapo weather history for previous 24 hours

 ConditionsComfort  
Time TempWeatherWind HumidityBarometerVisibility
3:00 PM
Oct 23
88 °FScattered clouds.12 mph59%29.77 "HgN/A
2:00 PM88 °FScattered clouds.14 mph55%29.77 "HgN/A
1:00 PM88 °FScattered clouds.12 mph62%29.80 "HgN/A
12:00 PM86 °FPassing clouds.14 mph70%29.83 "HgN/A
11:00 AM86 °FPassing clouds.16 mph66%29.86 "HgN/A
10:00 AM86 °FScattered clouds.14 mph66%29.89 "HgN/A
9:00 AM84 °FPassing clouds.9 mph70%29.89 "HgN/A
8:00 AM81 °FPassing clouds.3 mph79%29.86 "HgN/A
7:00 AM77 °FPassing clouds.5 mph89%29.86 "HgN/A
6:00 AM75 °FPassing clouds.3 mph94%29.83 "HgN/A
5:00 AM77 °FPassing clouds.1 mph89%29.80 "HgN/A
3:00 AM77 °FPassing clouds.1 mph89%29.83 "HgN/A
2:00 AM77 °FPassing clouds.1 mph89%29.83 "HgN/A
1:00 AM77 °FPassing clouds.1 mph89%29.83 "HgN/A
12:00 AM79 °FPassing clouds.1 mph89%29.86 "HgN/A
11:00 PM
Oct 22
77 °FPassing clouds.7 mph89%29.86 "HgN/A
10:00 PM77 °FPassing clouds.1 mph89%29.86 "HgN/A
9:00 PM77 °FPassing clouds.1 mph94%29.86 "HgN/A
8:00 PM79 °FPassing clouds.1 mph84%29.86 "HgN/A
7:00 PM79 °FSprinkles. Partly cloudy.No wind84%29.86 "Hg6 mi
6:00 PM82 °FSprinkles. Partly cloudy.7 mph70%29.83 "Hg6 mi
5:00 PM84 °FBroken clouds.5 mph74%29.80 "HgN/A
4:00 PM84 °FScattered clouds.6 mph79%29.80 "HgN/A
Weather by CustomWeather, © 2014

See weather overviewHow to use our weather pages